Malaga, Spain

12:26 AM CEST on May 26, 2018 (GMT +0200)
Malaga

Weather History for LEMG - February, 2018

Change the Weather History Date:

Wednesday, February 14, 2018

  Actual Average Record
Temperature  
Mean Temperature 57 °F -  
Max Temperature 65 °F 63 °F 78 °F (2002)
Min Temperature 49 °F 46 °F 33 °F (2012)
Degree Days  
Heating Degree Days 8    
Growing Degree Days 7 (Base 50)    
Moisture  
Dew Point 38 °F    
Average Humidity 46    
Maximum Humidity 62    
Minimum Humidity 27    
Precipitation  
Precipitation 0.00 in 0.09 in - ()
Sea Level Pressure  
Sea Level Pressure 30.18 in    
Wind  
Wind Speed 16 mph ()    
Max Wind Speed 25 mph    
Max Gust Speed 38 mph    
Visibility 12.0 miles    
Events      
Averages and records for this station are not official NWS values.
T = Trace of Precipitation, MM = Missing Value Source: Averaged Metar Reports

Daily Weather History Graph

Daily Weather History Graph

Search for Another Location

Airport or City:

Astronomy

Feb. 14, 2018 Rise Set
Actual Time 8:07 AM CET 6:57 PM CET
Civil Twilight 7:40 AM CET 7:23 PM CET
Nautical Twilight 7:10 AM CET 7:54 PM CET
Astronomical Twilight 6:40 AM CET 8:24 PM CET
Moon 7:15 AM CET (2/14) 5:47 PM CET (2/14)
Length of Visible Light 11h 42m
Length of Day
10h 49m
Waning Crescent, 2% of the Moon is Illuminated
Feb 14
Waning Crescent
Feb 15
New
Feb 23
First Quarter
Mar 2
Full
Mar 9
Last Quarter

Hourly Weather History & Observations

Time (CET) Temp. Dew Point Humidity Pressure Visibility Wind Dir Wind Speed Gust Speed Precip Events Conditions
12:00 AM 53.6 °F 32.0 °F 44% 30.18 in - WNW 11.5 mph - N/A   Clear
12:30 AM 50.0 °F 32.0 °F 50% 30.18 in - WNW 9.2 mph - N/A   Clear
1:00 AM 53.6 °F 32.0 °F 44% 30.18 in - West 12.7 mph - N/A   Clear
1:30 AM 51.8 °F 33.8 °F 50% 30.18 in - West 15.0 mph - N/A   Clear
2:00 AM 52 °F 34 °F 39% 30.20 in - West 18.4 mph - -  
2:00 AM 51.8 °F 33.8 °F 50% 30.18 in - West 18.4 mph - N/A   Clear
2:30 AM 51.8 °F 33.8 °F 50% 30.18 in - West 13.8 mph - N/A   Clear
3:00 AM 51 °F 35 °F 42% 30.19 in - West 15.0 mph - -  
3:00 AM 51.8 °F 35.6 °F 54% 30.18 in - West 13.8 mph - N/A   Clear
3:30 AM 50.0 °F 35.6 °F 58% 30.18 in - WNW 13.8 mph - N/A   Clear
4:00 AM 51 °F 36 °F 44% 30.19 in 12 mi West 16.1 mph - -   Clear
4:00 AM 51.8 °F 35.6 °F 54% 30.18 in - WNW 15.0 mph - N/A   Clear
4:30 AM 50.0 °F 37.4 °F 62% 30.15 in - WNW 13.8 mph - N/A   Clear
5:00 AM 50 °F 36 °F 47% 30.17 in - WNW 9.2 mph - -  
5:00 AM 51.8 °F 35.6 °F 54% 30.15 in - WNW 9.2 mph - N/A   Clear
5:30 AM 51.8 °F 35.6 °F 54% 30.15 in - West 13.8 mph - N/A   Clear
6:00 AM 51 °F 36 °F 44% 30.17 in - West 18.4 mph - -  
6:00 AM 51.8 °F 35.6 °F 54% 30.15 in - West 18.4 mph - N/A   Clear
6:30 AM 50.0 °F 35.6 °F 58% 30.18 in - WNW 17.3 mph - N/A   Clear
7:00 AM 51 °F 37 °F 47% 30.19 in 12 mi West 23.0 mph - -   Clear
7:00 AM 51.8 °F 35.6 °F 54% 30.18 in - West 23.0 mph - N/A   Clear
7:30 AM 51.8 °F 35.6 °F 54% 30.18 in - West 20.7 mph - N/A   Clear
8:00 AM 51 °F 37 °F 47% 30.19 in 12 mi West 24.2 mph - -   Clear
8:00 AM 51.8 °F 37.4 °F 58% 30.18 in - WNW 23.0 mph 34.5 mph N/A   Clear
8:30 AM 51.8 °F 37.4 °F 58% 30.15 in - WNW 23.0 mph 36.8 mph N/A   Clear
9:00 AM 51 °F 37 °F 48% 30.20 in - West 18.4 mph - -  
9:00 AM 51.8 °F 37.4 °F 58% 30.18 in - West 17.3 mph 29.9 mph N/A   Clear
9:30 AM 51.8 °F 37.4 °F 58% 30.18 in - West 20.7 mph - N/A   Clear
10:00 AM 54 °F 38 °F 43% 30.21 in 19 mi West 21.9 mph - -   Scattered Clouds
10:00 AM 53.6 °F 39.2 °F 58% 30.18 in - WNW 19.6 mph - N/A   Clear
10:30 AM 55.4 °F 37.4 °F 51% 30.21 in - WNW 23.0 mph 34.5 mph N/A   Clear
11:00 AM 58 °F 38 °F 35% 30.21 in - WNW 20.7 mph - -  
11:00 AM 59.0 °F 39.2 °F 48% 30.18 in - WNW 21.9 mph 35.7 mph N/A   Clear
11:30 AM 59.0 °F 37.4 °F 45% 30.21 in - West 21.9 mph 33.4 mph N/A   Clear
12:00 PM 60 °F 38 °F 32% 30.21 in - WNW 21.9 mph - -  
12:00 PM 60.8 °F 37.4 °F 42% 30.21 in 6.2 mi WNW 20.7 mph - N/A   Partly Cloudy
12:30 PM 60.8 °F 37.4 °F 42% 30.18 in 6.2 mi WNW 24.2 mph 38.0 mph N/A   Partly Cloudy
1:00 PM 61 °F 37 °F 29% 30.19 in 19 mi WNW 25.3 mph - -   Scattered Clouds
1:00 PM 60.8 °F 37.4 °F 42% 30.18 in 6.2 mi WNW 25.3 mph 38.0 mph N/A   Partly Cloudy
1:30 PM 62.6 °F 39.2 °F 42% 30.18 in 6.2 mi WNW 21.9 mph 33.4 mph N/A   Partly Cloudy
2:00 PM 64 °F 39 °F 28% 30.18 in 19 mi WNW 18.4 mph - -   Scattered Clouds
2:00 PM 64.4 °F 39.2 °F 40% 30.15 in 6.2 mi WNW 19.6 mph 31.1 mph N/A   Partly Cloudy
2:30 PM 66.2 °F 39.2 °F 37% 30.15 in 6.2 mi WNW 16.1 mph - N/A   Partly Cloudy
3:00 PM 65 °F 39 °F 27% 30.16 in - WNW 18.4 mph - -  
3:00 PM 64.4 °F 39.2 °F 40% 30.15 in - WNW 17.3 mph 28.8 mph N/A   Clear
3:30 PM 64.4 °F 39.2 °F 40% 30.15 in - WNW 18.4 mph - N/A   Clear
4:00 PM 65 °F 39 °F 27% 30.16 in 19 mi WNW 17.3 mph - -   Clear
4:00 PM 64.4 °F 41.0 °F 42% 30.15 in - WNW 16.1 mph - N/A   Clear
4:30 PM 64.4 °F 39.2 °F 40% 30.15 in - WNW 17.3 mph - N/A   Clear
5:00 PM 65 °F 39 °F 27% 30.16 in - WNW 17.3 mph - -  
5:00 PM 64.4 °F 39.2 °F 40% 30.15 in - WNW 17.3 mph 29.9 mph N/A   Clear
5:30 PM 62.6 °F 39.2 °F 42% 30.15 in - WNW 18.4 mph 29.9 mph N/A   Clear
6:00 PM 63 °F 40 °F 30% 30.18 in - WNW 16.1 mph - -  
6:00 PM 62.6 °F 39.2 °F 42% 30.15 in - WNW 17.3 mph 31.1 mph N/A   Clear
6:30 PM 60.8 °F 41.0 °F 48% 30.15 in - WNW 21.9 mph 33.4 mph N/A   Clear
7:00 PM 60 °F 40 °F 37% 30.19 in 19 mi WNW 21.9 mph - -   Clear
7:00 PM 59.0 °F 41.0 °F 51% 30.18 in - WNW 23.0 mph 34.5 mph N/A   Clear
7:30 PM 59.0 °F 39.2 °F 48% 30.18 in - WNW 19.6 mph - N/A   Clear
8:00 PM 59 °F 40 °F 37% 30.20 in - WNW 18.4 mph - -  
8:00 PM 57.2 °F 39.2 °F 51% 30.18 in - WNW 17.3 mph - N/A   Clear
8:30 PM 57.2 °F 39.2 °F 51% 30.18 in - West 21.9 mph - N/A   Clear
9:00 PM 58 °F 40 °F 39% 30.20 in - West 20.7 mph - -  
9:00 PM 57.2 °F 39.2 °F 51% 30.18 in - West 19.6 mph - N/A   Clear
9:30 PM 59.0 °F 39.2 °F 48% 30.18 in - West 18.4 mph - N/A   Clear
10:00 PM 58 °F 40 °F 40% 30.21 in 12 mi West 20.7 mph - -   Clear
10:00 PM 57.2 °F 39.2 °F 51% 30.18 in - West 19.6 mph - N/A   Clear
10:30 PM 57.2 °F 39.2 °F 51% 30.18 in - West 21.9 mph - N/A   Clear
11:00 PM 58 °F 40 °F 39% 30.21 in - West 24.2 mph - -  
11:00 PM 57.2 °F 39.2 °F 51% 30.21 in - West 21.9 mph - N/A   Clear
11:30 PM 57.2 °F 39.2 °F 51% 30.18 in - West 21.9 mph - N/A   Clear